Погода Ростов Великий

Погода Ростов Великий : погода сейчас, прогноз погоды и архив. Всё, что Вы хотите узнать о погоде Ростов Великий!

Хотите узнать прогноз погоды Ростов Великий? Тогда Вам сюда: Погода Ростов Великий

Поиск расширенной информации на нашем сайте:

Другие новости

Новости СМИ2

Главная страница сайта

Новости сайта

03.07.2017

Напоминаем, что на нашем специализированном сайте Метеоцентр.Азия вы можете получить высокодетализированные автоматические прогнозы погоды по пунктам России, СНГ и мира в авиационном формате (включающие направление и скорость ветра, видимость, явления погоды, количество и форму облачности, нижнюю и верхнюю границу облачности).


Погода Ростов Великий - сегодня

Время (UTC), дата Ветер
(°,м/с) 
Видим.   Явления Облачность Т
(°С)
Тd
(°С)
f(%) Тe
(°С)
Pmin
(гПа)
dP
(гПа)
Po
(мм)
O2
(г/м3)
Тmin Tmax R s Состояние
почвы
21 23.07.17 250 (З) 30000 м    8/8 600 м кучево-дожд. 
[Cb cap]
+13.3 +9.8 79 +15  1011.9  -0.4  750  286           
00 24.07.17 280 (З) 30000 м    9/9 600 м кучево-дожд. 
[Cb cap]
+12.9 +9.6 80 +14  1011.3  -0.6  749  287           
03 24.07.17 220 (ЮЗ) 50000 м    8/6 600 м кучево-дожд., верхняя 
[Cb cap|Ci fib]
+12.7 +10.4 86 +16  1010.9  -0.4  749  287  +12.2         
06 24.07.17 300 (СЗ) 50000 м    6/6 600 м 
[Sc]
+16.6 +10.5 67 +19  1010.2  -0.5  749  283           
09 24.07.17 300 (СЗ) 5{11}  50000 м    8/8 600 м 
[Cu Sc]
+20 +9.7 51 +21  1010  0.1  749  279           
12 24.07.17 300 (СЗ) 50000 м    9/8 600 м кучево-дожд., средняя 
[Cb cap|Ac trans]
+20.1 +10.5 54 +22  1010.4  0.4  749  279           
15 24.07.17 330 (СЗ) 50000 м    9/5 600 м средняя 
[Sc|Ac trans]
+19.1 +11.7 62 +25  1010.5  0.1  749  280    +21.2       
18 24.07.17 300 (СЗ) 50000 м    8/5 600 м средняя 
[Sc|Ac trans]
+16 +12.1 78 +21  1010.4  -0.2  749  283           
21 24.07.17 тихо ()   50000 м    4/4 600 м 
[Sc]
+11 +9.9 93 +12  1010.4  -0.2  749  288           
00 25.07.17 310 (СЗ) 50000 м    4/4 600 м средняя 
[Sc|Ac trans]
+9.7 +8.9 95 +11  1010.7  0.2  749  290           
03 25.07.17 тихо ()   50000 м    1/0 верхняя 
[Ci fib]
+12.1 +11.2 94 +15  1010.5  0.1  749  287  +8.9        влажная 
06 25.07.17 340 (С) 50000 м    8/0 средняя, верхняя 
[Ac trans|Cs]
+18.3 +12.7 70 +24  1010  -0.2  749  280           
09 25.07.17 320 (СЗ) 50000 м    6/5 600 м верхняя 
[Cu Sc|Ci fib]
+21.5 +11.7 54 +25  1009.8  0.1  749  277           
12 25.07.17 330 (СЗ) 50000 м    8/4 600 м верхняя 
[Cu Sc|Cs]
+21.9 +11 50 +24  1009.6  0.1  749  277           
15 25.07.17 330 (СЗ) 28000 м    3/1 600 м средняя 
[Sc|Ac trans]
+22.9 +9.9 44 +24  1009.2  -0.3  748  276    +24.2       
18 25.07.17 300 (СЗ) 50000 м    4/0 средняя 
[Ac trans]
+18.1 +13.9 76 +27  1009.4  748  280           
21 25.07.17 310 (СЗ) 50000 м    1/0 средняя 
[Ac trans]
+13.2 +12.1 93 +18  1009.9  0.3  748  285           
00 26.07.17 тихо ()   50000 м    9/0 средняя 
[Ac und]
+12.8 +11.9 94 +17  1010.5  0.6  749  286           
03 26.07.17 тихо ()   50000 м    3/0 средняя, верхняя 
[Ac trans|Ci fib]
+15.4 +14.4 94 +23  1009.7  -0.7  748  282  +11.8         
06 26.07.17 130 (ЮВ) 50000 м    4/0 средняя, верхняя 
[Ac und|Ci fib]
+20.4 +15.2 72 +29  1009.2  -0.2  748  277           
09 26.07.17 180 (Ю) 50000 м    8/3 1000 м средняя, верхняя 
[Cu med, cong|Ac trans|Cc]
+24.7 +14.1 52 +32  1008.6  -0.4  748  274           
12 26.07.17 140 (ЮВ) 40000 м    9/4 600 м средняя 
[Cu Sc|Ac trans]
+23.9 +14.9 57 +32  1008.2  -0.4  748  274           
15 26.07.17 120 (ЮВ) 40000 м    9/6 600 м кучево-дожд., средняя, верхняя 
[Cb cap|Ac trans|Ci fib]
+23.2 +16.1 64 +34  1007.4  -0.4  747  274    +24.8       
18 26.07.17 150 (ЮВ) 40000 м    9/8 600 м кучево-дожд., средняя 
[Cb cap|Ac trans]
+21.6 +17.3 77 +35  1006.4  -1  746  275           
21 26.07.17 170 (Ю) 45000 м    9/9 600 м 
[Sc]
+20.1 +15.1 73 +29  1006.4  0.1  746  277           
Время (UTC), дата Ветер
(°,м/с) 
Видим.   Явления Облачность Т
(°С)
Тd
(°С)
f(%) Тe
(°С)
Pmin
(гПа)
dP
(гПа)
Po
(мм)
O2
(г/м3)
Тmin Tmax R s Состояние
почвы

Для получения пояснительной информации подведите курсор к названию столбца.

ПОГОДА Ростов Великий - архив

Всё, что Вы хотите узнать о погоде Ростов Великий - удобно и подробно!

Выберите нужную дату (начиная с 1 января 2015* года) и нажмите кнопку "Найти".
Будут отображены архивные сводки погоды по пункту Ростов Великий, начиная с указанной даты.


Отображать данные в формате CSV (для использования в таблицах Excel)


Внимание! Наш архив погоды предназначен исключительно для личного некоммерческого использования в познавательных целях. Если Вам необходимы официальные справки о состоянии погоды (для производственных, юридических, коммерческих и т.п. целей), обращайтесь в органы Росгидромета.

*Примечание: данная дата относится к архиву по метеостанциям СССР (Россия, СНГ, Балтия).
Архив по метеостанциям Зарубежной Европы и Азии (кроме Китая) хранится 10 дней, по другим регионам земного шара (Китай, Африка, Америка, Австралия, Океания) - 1 день.

Ростов Великий - район местоположения метеостанции


Название, широта, долгота, высота метеостанции:
Ростов Великий 57.2°ш. 39.4°д. 101 м над ур. моря [Российская Федерация]

Дополнительная информация

В oтличие oт бoльшинства пoгoдных сайтoв мы публикуем пoдрoбную метеoинфoрмацию в детальнoм прoфессиoнальнoм фoрмате.

Характеристики температуры и влажнoсти вoздуха измеряются на высoте 2 м в тени вдали oт зданий и деревьев.
Скoрoсть ветра измеряется на высoте 10 м (на урoвне рoста челoвека скoрoсть ветра ниже в 1.5-2 раза). Если метеoстанция нахoдится в гoрoде или в лесу, тo скoрoсть ветра занижена на 2-4 м/с пo сравнению с oткрытым местoм. Скoрoсть ветра над акватoриями крупных рек и oзёр, а также на вершинах хoлмoв на 2-5 м/с выше, чем в oбычных услoвиях.
Атмoсфернoе давление в разных тoчках местнoсти мoжет значительнo oтличаться oт давления на метеoстанции, в зависимoсти oт услoвий рельефа (при пoдъёме на 10 м давление пoнижается примернo на 1 мм рт.ст.).